contact:dominique.lefevre@mio.osupytheas.fr, maurice.libes@osupytheas.fr, didier.mallarino@osupytheas.fr
Project:EMSO http://www.emso-fr.org/EMSO-France
Depth: 2436.0 m
Title:EMSO Ligure Ouest : Data MII capteur CSTAR
DateTime,Latitude,Longitude,Instrument_Serial,Reference_Counts,Signal_Counts,Corrected_Signal_raw_counts,Calculated_Beam_c_inverse_meters,Internal_thermistor_counts
DateTime,Latitude,Longitude,Instrument_Serial,Reference_Counts,Signal_Counts,Corrected_Signal_raw_counts,Calculated_Beam_c_inverse_meters,Internal_thermistor_counts
2022-05-19T00:01:29,42.805,6.029,CST-1368DR,4743,5355,12037,01.041,551
2022-05-19T00:04:30,42.805,6.029,CST-1368DR,4743,5355,12037,01.041,551
2022-05-19T00:07:32,42.805,6.029,CST-1368DR,4743,5353,12033,01.043,551
2022-05-19T00:10:33,42.805,6.029,CST-1368DR,4743,5351,12028,01.044,551
2022-05-19T00:13:35,42.805,6.029,CST-1368DR,4743,5355,12036,01.042,551
2022-05-19T00:16:37,42.805,6.029,CST-1368DR,4743,5352,12030,01.044,551
2022-05-19T00:19:38,42.805,6.029,CST-1368DR,4743,5353,12033,01.043,551
2022-05-19T00:22:40,42.805,6.029,CST-1368DR,4743,5355,12036,01.042,551
2022-05-19T00:25:41,42.805,6.029,CST-1368DR,4743,5355,12037,01.041,551
2022-05-19T00:28:43,42.805,6.029,CST-1368DR,4743,5354,12034,01.042,551
2022-05-19T00:31:45,42.805,6.029,CST-1368DR,4743,5354,12036,01.042,551
2022-05-19T00:34:46,42.805,6.029,CST-1368DR,4743,5354,12035,01.042,551
2022-05-19T00:37:48,42.805,6.029,CST-1368DR,4743,5354,12035,01.042,551
2022-05-19T00:40:49,42.805,6.029,CST-1368DR,4743,5354,12035,01.042,551
2022-05-19T00:43:51,42.805,6.029,CST-1368DR,4743,5353,12033,01.043,551
2022-05-19T00:46:52,42.805,6.029,CST-1368DR,4743,5354,12035,01.042,551
2022-05-19T00:49:54,42.805,6.029,CST-1368DR,4743,5353,12033,01.043,551
2022-05-19T00:52:56,42.805,6.029,CST-1368DR,4743,5353,12032,01.043,551
2022-05-19T00:55:57,42.805,6.029,CST-1368DR,4743,5354,12036,01.042,551
2022-05-19T00:58:59,42.805,6.029,CST-1368DR,4743,5354,12035,01.042,551
2022-05-19T01:02:00,42.805,6.029,CST-1368DR,4743,5353,12032,01.043,551
2022-05-19T01:05:02,42.805,6.029,CST-1368DR,4743,5353,12033,01.043,551
2022-05-19T01:08:03,42.805,6.029,CST-1368DR,4743,5348,12021,01.047,551
2022-05-19T01:11:05,42.805,6.029,CST-1368DR,4743,5353,12032,01.043,551
2022-05-19T01:14:07,42.805,6.029,CST-1368DR,4743,5352,12030,01.044,551
2022-05-19T01:17:08,42.805,6.029,CST-1368DR,4743,5353,12033,01.043,551
2022-05-19T01:20:10,42.805,6.029,CST-1368DR,4743,5351,12028,01.044,551
2022-05-19T01:23:11,42.805,6.029,CST-1368DR,4743,5353,12032,01.043,551
2022-05-19T01:26:13,42.805,6.029,CST-1368DR,4743,5353,12032,01.043,551
2022-05-19T01:29:15,42.805,6.029,CST-1368DR,4743,5354,12034,01.042,551
2022-05-19T01:32:16,42.805,6.029,CST-1368DR,4743,5351,12029,01.044,550
2022-05-19T01:35:18,42.805,6.029,CST-1368DR,4743,5354,12035,01.042,551
2022-05-19T01:38:19,42.805,6.029,CST-1368DR,4743,5353,12032,01.043,551
2022-05-19T01:41:21,42.805,6.029,CST-1368DR,4743,5354,12034,01.042,551
2022-05-19T01:44:22,42.805,6.029,CST-1368DR,4743,5353,12033,01.043,551
2022-05-19T01:47:24,42.805,6.029,CST-1368DR,4743,5354,12035,01.042,551
2022-05-19T01:50:26,42.805,6.029,CST-1368DR,4743,5354,12034,01.042,551
2022-05-19T01:53:27,42.805,6.029,CST-1368DR,4743,5355,12038,01.041,551
2022-05-19T01:56:29,42.805,6.029,CST-1368DR,4743,5353,12033,01.043,551
2022-05-19T01:59:30,42.805,6.029,CST-1368DR,4743,5352,12031,01.043,551
2022-05-19T02:02:32,42.805,6.029,CST-1368DR,4743,5355,12037,01.041,551
2022-05-19T02:05:33,42.805,6.029,CST-1368DR,4743,5355,12038,01.041,551
2022-05-19T02:08:35,42.805,6.029,CST-1368DR,4743,5355,12037,01.041,551
2022-05-19T02:11:37,42.805,6.029,CST-1368DR,4743,5354,12034,01.042,551
2022-05-19T02:14:38,42.805,6.029,CST-1368DR,4743,5354,12035,01.042,551
2022-05-19T02:17:40,42.805,6.029,CST-1368DR,4743,5355,12037,01.041,551
2022-05-19T02:20:41,42.805,6.029,CST-1368DR,4743,5354,12035,01.042,551
2022-05-19T02:23:43,42.805,6.029,CST-1368DR,4743,5355,12036,01.042,551
2022-05-19T02:26:45,42.805,6.029,CST-1368DR,4743,5355,12038,01.041,551
2022-05-19T02:29:46,42.805,6.029,CST-1368DR,4743,5356,12039,01.041,551
2022-05-19T02:32:48,42.805,6.029,CST-1368DR,4743,5356,12040,01.040,551
2022-05-19T02:35:49,42.805,6.029,CST-1368DR,4743,5355,12037,01.041,551
2022-05-19T02:38:51,42.805,6.029,CST-1368DR,4743,5356,12040,01.040,551
2022-05-19T02:41:52,42.805,6.029,CST-1368DR,4743,5355,12038,01.041,551
2022-05-19T02:44:54,42.805,6.029,CST-1368DR,4743,5354,12036,01.042,551
2022-05-19T02:47:56,42.805,6.029,CST-1368DR,4743,5354,12035,01.042,551
2022-05-19T02:50:57,42.805,6.029,CST-1368DR,4743,5355,12037,01.041,551
2022-05-19T02:53:59,42.805,6.029,CST-1368DR,4743,5355,12037,01.041,551
2022-05-19T02:57:00,42.805,6.029,CST-1368DR,4743,5354,12036,01.042,551
2022-05-19T03:00:02,42.805,6.029,CST-1368DR,4743,5355,12036,01.042,551
2022-05-19T03:03:03,42.805,6.029,CST-1368DR,4743,5354,12035,01.042,551
2022-05-19T03:06:05,42.805,6.029,CST-1368DR,4743,5354,12034,01.042,551
2022-05-19T03:09:07,42.805,6.029,CST-1368DR,4743,5353,12033,01.043,551
2022-05-19T03:12:08,42.805,6.029,CST-1368DR,4743,5353,12033,01.043,551
2022-05-19T03:15:10,42.805,6.029,CST-1368DR,4743,5351,12028,01.044,551
2022-05-19T03:18:11,42.805,6.029,CST-1368DR,4743,5354,12034,01.042,551
2022-05-19T03:21:13,42.805,6.029,CST-1368DR,4743,5353,12033,01.043,551
2022-05-19T03:24:15,42.805,6.029,CST-1368DR,4743,5355,12038,01.041,551
2022-05-19T03:27:16,42.805,6.029,CST-1368DR,4743,5353,12033,01.043,551
2022-05-19T03:30:18,42.805,6.029,CST-1368DR,4743,5353,12033,01.043,551
2022-05-19T03:33:19,42.805,6.029,CST-1368DR,4743,5352,12030,01.044,551
2022-05-19T03:36:21,42.805,6.029,CST-1368DR,4743,5353,12033,01.043,551
2022-05-19T03:39:22,42.805,6.029,CST-1368DR,4743,5353,12032,01.043,551
2022-05-19T03:42:24,42.805,6.029,CST-1368DR,4743,5352,12030,01.044,551
2022-05-19T03:45:26,42.805,6.029,CST-1368DR,4743,5353,12033,01.043,551
2022-05-19T03:48:27,42.805,6.029,CST-1368DR,4743,5353,12033,01.043,551
2022-05-19T03:51:29,42.805,6.029,CST-1368DR,4743,5351,12028,01.044,551
2022-05-19T03:54:30,42.805,6.029,CST-1368DR,4743,5350,12027,01.045,551
2022-05-19T03:57:32,42.805,6.029,CST-1368DR,4743,5352,12030,01.044,551
2022-05-19T04:00:34,42.805,6.029,CST-1368DR,4743,5352,12031,01.043,551
2022-05-19T04:03:35,42.805,6.029,CST-1368DR,4743,5352,12030,01.044,551
2022-05-19T04:06:37,42.805,6.029,CST-1368DR,4743,5351,12027,01.045,551
2022-05-19T04:09:38,42.805,6.029,CST-1368DR,4743,5351,12028,01.044,551
2022-05-19T04:12:40,42.805,6.029,CST-1368DR,4743,5350,12025,01.045,551
2022-05-19T04:15:41,42.805,6.029,CST-1368DR,4743,5353,12032,01.043,551
2022-05-19T04:18:43,42.805,6.029,CST-1368DR,4743,5353,12033,01.043,551
2022-05-19T04:21:45,42.805,6.029,CST-1368DR,4743,5352,12030,01.044,551
2022-05-19T04:24:46,42.805,6.029,CST-1368DR,4743,5346,12017,01.048,551
2022-05-19T04:27:48,42.805,6.029,CST-1368DR,4743,5341,12006,01.052,551
2022-05-19T04:30:49,42.805,6.029,CST-1368DR,4743,5340,12003,01.053,551
2022-05-19T04:33:51,42.805,6.029,CST-1368DR,4743,5341,12005,01.052,551
2022-05-19T04:36:52,42.805,6.029,CST-1368DR,4743,5343,12010,01.050,551
2022-05-19T04:39:54,42.805,6.029,CST-1368DR,4743,5351,12028,01.044,551
2022-05-19T04:42:56,42.805,6.029,CST-1368DR,4743,5360,12048,01.038,551
2022-05-19T04:45:57,42.805,6.029,CST-1368DR,4743,5359,12046,01.038,551
2022-05-19T04:48:59,42.805,6.029,CST-1368DR,4743,5375,12083,01.026,551
2022-05-19T04:52:00,42.805,6.029,CST-1368DR,4743,5377,12086,01.025,551
2022-05-19T04:55:02,42.805,6.029,CST-1368DR,4743,5375,12081,01.027,551
2022-05-19T04:58:04,42.805,6.029,CST-1368DR,4743,5376,12085,01.025,551
2022-05-19T05:01:05,42.805,6.029,CST-1368DR,4743,5376,12085,01.025,551
2022-05-19T05:04:07,42.805,6.029,CST-1368DR,4743,5376,12085,01.025,551
2022-05-19T05:07:08,42.805,6.029,CST-1368DR,4743,5377,12087,01.025,551
2022-05-19T05:10:10,42.805,6.029,CST-1368DR,4743,5377,12087,01.025,551
2022-05-19T05:13:11,42.805,6.029,CST-1368DR,4743,5378,12088,01.024,551
2022-05-19T05:16:13,42.805,6.029,CST-1368DR,4743,5376,12083,01.026,551
2022-05-19T05:19:15,42.805,6.029,CST-1368DR,4743,5376,12085,01.025,551
2022-05-19T05:22:16,42.805,6.029,CST-1368DR,4743,5376,12085,01.025,551
2022-05-19T05:25:18,42.805,6.029,CST-1368DR,4743,5377,12086,01.025,551
2022-05-19T05:28:19,42.805,6.029,CST-1368DR,4743,5378,12089,01.024,551
2022-05-19T05:31:21,42.805,6.029,CST-1368DR,4743,5377,12087,01.025,551
2022-05-19T05:34:22,42.805,6.029,CST-1368DR,4743,5377,12087,01.025,551
2022-05-19T05:37:24,42.805,6.029,CST-1368DR,4743,5378,12088,01.024,551
2022-05-19T05:40:26,42.805,6.029,CST-1368DR,4743,5377,12086,01.025,551
2022-05-19T05:43:27,42.805,6.029,CST-1368DR,4743,5377,12087,01.025,551
2022-05-19T05:46:29,42.805,6.029,CST-1368DR,4743,5375,12081,01.027,551
2022-05-19T05:49:30,42.805,6.029,CST-1368DR,4743,5378,12088,01.024,551
2022-05-19T05:52:32,42.805,6.029,CST-1368DR,4743,5378,12090,01.024,551
2022-05-19T05:55:34,42.805,6.029,CST-1368DR,4743,5375,12083,01.026,551
2022-05-19T05:58:35,42.805,6.029,CST-1368DR,4743,5376,12085,01.025,551
2022-05-19T06:01:37,42.805,6.029,CST-1368DR,4743,5378,12089,01.024,551
2022-05-19T06:04:38,42.805,6.029,CST-1368DR,4743,5377,12086,01.025,551
2022-05-19T06:07:40,42.805,6.029,CST-1368DR,4743,5377,12086,01.025,551
2022-05-19T06:10:41,42.805,6.029,CST-1368DR,4743,5375,12081,01.027,551
2022-05-19T06:13:43,42.805,6.029,CST-1368DR,4743,5374,12081,01.027,551
2022-05-19T06:16:45,42.805,6.029,CST-1368DR,4743,5378,12089,01.024,551
2022-05-19T06:19:46,42.805,6.029,CST-1368DR,4743,5378,12088,01.024,551
2022-05-19T06:22:48,42.805,6.029,CST-1368DR,4743,5378,12088,01.024,551
2022-05-19T06:25:49,42.805,6.029,CST-1368DR,4743,5378,12089,01.024,551
2022-05-19T06:28:51,42.805,6.029,CST-1368DR,4743,5379,12091,01.023,551
2022-05-19T06:31:53,42.805,6.029,CST-1368DR,4743,5379,12090,01.024,551
2022-05-19T06:34:54,42.805,6.029,CST-1368DR,4743,5377,12086,01.025,551
2022-05-19T06:37:56,42.805,6.029,CST-1368DR,4743,5376,12085,01.025,551
2022-05-19T06:40:57,42.805,6.029,CST-1368DR,4743,5379,12090,01.024,551
2022-05-19T06:43:59,42.805,6.029,CST-1368DR,4743,5377,12087,01.025,551
2022-05-19T06:47:00,42.805,6.029,CST-1368DR,4743,5378,12089,01.024,551
2022-05-19T06:50:02,42.805,6.029,CST-1368DR,4743,5378,12090,01.024,551
2022-05-19T06:53:04,42.805,6.029,CST-1368DR,4743,5378,12088,01.024,551
2022-05-19T06:56:05,42.805,6.029,CST-1368DR,4743,5379,12091,01.023,551
2022-05-19T06:59:07,42.805,6.029,CST-1368DR,4743,5378,12089,01.024,551
2022-05-19T07:02:08,42.805,6.029,CST-1368DR,4743,5377,12087,01.025,551
2022-05-19T07:05:10,42.805,6.029,CST-1368DR,4743,5374,12081,01.027,551
2022-05-19T07:08:11,42.805,6.029,CST-1368DR,4743,5375,12082,01.026,551
2022-05-19T07:11:13,42.805,6.029,CST-1368DR,4743,5377,12087,01.025,551
2022-05-19T07:14:15,42.805,6.029,CST-1368DR,4743,5377,12087,01.025,551
2022-05-19T07:17:16,42.805,6.029,CST-1368DR,4743,5375,12082,01.026,551
2022-05-19T07:20:18,42.805,6.029,CST-1368DR,4743,5377,12087,01.025,551
2022-05-19T07:23:19,42.805,6.029,CST-1368DR,4743,5379,12091,01.023,551
2022-05-19T07:26:21,42.805,6.029,CST-1368DR,4743,5376,12083,01.026,551
2022-05-19T07:29:22,42.805,6.029,CST-1368DR,4743,5376,12085,01.025,551
2022-05-19T07:32:24,42.805,6.029,CST-1368DR,4743,5378,12089,01.024,551
2022-05-19T07:35:26,42.805,6.029,CST-1368DR,4743,5378,12089,01.024,551
2022-05-19T07:38:27,42.805,6.029,CST-1368DR,4743,5377,12087,01.025,551
2022-05-19T07:41:29,42.805,6.029,CST-1368DR,4743,5376,12083,01.026,551
2022-05-19T07:44:30,42.805,6.029,CST-1368DR,4743,5378,12089,01.024,551
2022-05-19T07:47:32,42.805,6.029,CST-1368DR,4743,5378,12088,01.024,551
2022-05-19T07:50:34,42.805,6.029,CST-1368DR,4743,5378,12088,01.024,551
2022-05-19T07:53:35,42.805,6.029,CST-1368DR,4743,5376,12085,01.025,551
2022-05-19T07:56:37,42.805,6.029,CST-1368DR,4743,5377,12087,01.025,551
2022-05-19T07:59:38,42.805,6.029,CST-1368DR,4743,5377,12087,01.025,551
2022-05-19T08:02:40,42.805,6.029,CST-1368DR,4743,5377,12087,01.025,551
2022-05-19T08:05:41,42.805,6.029,CST-1368DR,4743,5375,12082,01.026,551
2022-05-19T08:08:43,42.805,6.029,CST-1368DR,4743,5378,12089,01.024,551
2022-05-19T08:11:45,42.805,6.029,CST-1368DR,4743,5377,12087,01.025,551
2022-05-19T08:14:46,42.805,6.029,CST-1368DR,4743,5379,12092,01.023,551
2022-05-19T08:17:48,42.805,6.029,CST-1368DR,4743,5377,12087,01.025,551
2022-05-19T08:20:49,42.805,6.029,CST-1368DR,4743,5375,12082,01.026,551
2022-05-19T08:23:51,42.805,6.029,CST-1368DR,4743,5375,12082,01.026,551
2022-05-19T08:26:52,42.805,6.029,CST-1368DR,4743,5378,12088,01.024,551
2022-05-19T08:29:54,42.805,6.029,CST-1368DR,4743,5377,12086,01.025,551
2022-05-19T08:32:56,42.805,6.029,CST-1368DR,4743,5376,12085,01.025,551
2022-05-19T08:35:57,42.805,6.029,CST-1368DR,4743,5377,12086,01.025,551
2022-05-19T08:38:59,42.805,6.029,CST-1368DR,4743,5377,12086,01.025,551
2022-05-19T08:42:00,42.805,6.029,CST-1368DR,4743,5376,12085,01.025,551
2022-05-19T08:45:02,42.805,6.029,CST-1368DR,4743,5377,12086,01.025,551
2022-05-19T08:48:04,42.805,6.029,CST-1368DR,4743,5375,12083,01.026,551
2022-05-19T08:51:05,42.805,6.029,CST-1368DR,4743,5376,12085,01.025,551
2022-05-19T08:54:07,42.805,6.029,CST-1368DR,4743,5376,12085,01.025,551
2022-05-19T08:57:08,42.805,6.029,CST-1368DR,4743,5377,12086,01.025,551
2022-05-19T09:00:10,42.805,6.029,CST-1368DR,4743,5376,12085,01.025,551
2022-05-19T09:03:11,42.805,6.029,CST-1368DR,4743,5377,12087,01.025,551
2022-05-19T09:06:13,42.805,6.029,CST-1368DR,4743,5376,12083,01.026,551
2022-05-19T09:09:15,42.805,6.029,CST-1368DR,4743,5376,12083,01.026,551
2022-05-19T09:12:16,42.805,6.029,CST-1368DR,4743,5375,12083,01.026,551
2022-05-19T09:15:18,42.805,6.029,CST-1368DR,4743,5377,12086,01.025,551
2022-05-19T09:18:19,42.805,6.029,CST-1368DR,4743,5380,12092,01.023,551
2022-05-19T09:21:21,42.805,6.029,CST-1368DR,4743,5379,12090,01.024,551
2022-05-19T09:24:23,42.805,6.029,CST-1368DR,4743,5377,12087,01.025,551
2022-05-19T09:27:24,42.805,6.029,CST-1368DR,4743,5377,12086,01.025,551
2022-05-19T09:30:26,42.805,6.029,CST-1368DR,4743,5378,12089,01.024,551
2022-05-19T09:33:27,42.805,6.029,CST-1368DR,4743,5378,12090,01.024,551
2022-05-19T09:36:29,42.805,6.029,CST-1368DR,4743,5376,12085,01.025,551
2022-05-19T09:39:30,42.805,6.029,CST-1368DR,4743,5375,12082,01.026,551
2022-05-19T09:42:32,42.805,6.029,CST-1368DR,4743,5377,12087,01.025,551
2022-05-19T09:45:34,42.805,6.029,CST-1368DR,4743,5378,12089,01.024,551
2022-05-19T09:48:35,42.805,6.029,CST-1368DR,4743,5377,12086,01.025,551
2022-05-19T09:51:37,42.805,6.029,CST-1368DR,4743,5376,12085,01.025,551
2022-05-19T09:54:38,42.805,6.029,CST-1368DR,4743,5378,12089,01.024,551
2022-05-19T09:57:40,42.805,6.029,CST-1368DR,4743,5378,12089,01.024,551
2022-05-19T10:00:41,42.805,6.029,CST-1368DR,4743,5377,12086,01.025,551
2022-05-19T10:03:43,42.805,6.029,CST-1368DR,4743,5376,12083,01.026,551
2022-05-19T10:06:45,42.805,6.029,CST-1368DR,4743,5377,12087,01.025,551
2022-05-19T10:09:46,42.805,6.029,CST-1368DR,4743,5376,12085,01.025,551
2022-05-19T10:12:48,42.805,6.029,CST-1368DR,4743,5377,12086,01.025,551
2022-05-19T10:15:49,42.805,6.029,CST-1368DR,4743,5375,12082,01.026,551
2022-05-19T10:18:51,42.805,6.029,CST-1368DR,4743,5378,12088,01.024,551
2022-05-19T10:21:53,42.805,6.029,CST-1368DR,4743,5377,12087,01.025,551
2022-05-19T10:24:54,42.805,6.029,CST-1368DR,4743,5378,12088,01.024,551
2022-05-19T10:27:56,42.805,6.029,CST-1368DR,4743,5377,12087,01.025,551
2022-05-19T10:30:57,42.805,6.029,CST-1368DR,4743,5377,12087,01.025,551
2022-05-19T10:33:59,42.805,6.029,CST-1368DR,4743,5376,12085,01.025,551
2022-05-19T10:37:00,42.805,6.029,CST-1368DR,4743,5378,12089,01.024,551
2022-05-19T10:40:02,42.805,6.029,CST-1368DR,4743,5378,12090,01.024,551
2022-05-19T10:43:04,42.805,6.029,CST-1368DR,4743,5375,12082,01.026,551
2022-05-19T10:46:05,42.805,6.029,CST-1368DR,4743,5377,12086,01.025,551
2022-05-19T10:49:07,42.805,6.029,CST-1368DR,4743,5358,12044,01.039,551
2022-05-19T10:52:08,42.805,6.029,CST-1368DR,4743,5378,12089,01.024,551
2022-05-19T10:55:10,42.805,6.029,CST-1368DR,4743,5378,12089,01.024,551
2022-05-19T10:58:11,42.805,6.029,CST-1368DR,4743,5379,12092,01.023,551
2022-05-19T11:01:13,42.805,6.029,CST-1368DR,4743,5378,12089,01.024,551
2022-05-19T11:04:15,42.805,6.029,CST-1368DR,4743,5378,12090,01.024,551
2022-05-19T11:07:16,42.805,6.029,CST-1368DR,4743,5379,12091,01.023,551
2022-05-19T11:10:18,42.805,6.029,CST-1368DR,4743,5377,12087,01.025,551
2022-05-19T11:13:19,42.805,6.029,CST-1368DR,4743,5376,12085,01.025,551
2022-05-19T11:16:21,42.805,6.029,CST-1368DR,4743,5377,12087,01.025,551
2022-05-19T11:19:23,42.805,6.029,CST-1368DR,4743,5380,12093,01.023,551
2022-05-19T11:22:24,42.805,6.029,CST-1368DR,4743,5377,12087,01.025,551
2022-05-19T11:25:26,42.805,6.029,CST-1368DR,4743,5376,12085,01.025,551
2022-05-19T11:28:27,42.805,6.029,CST-1368DR,4743,5377,12087,01.025,551
2022-05-19T11:31:29,42.805,6.029,CST-1368DR,4743,5377,12087,01.025,551
2022-05-19T11:34:30,42.805,6.029,CST-1368DR,4743,5377,12086,01.025,551
2022-05-19T11:37:32,42.805,6.029,CST-1368DR,4743,5377,12087,01.025,551
2022-05-19T11:40:34,42.805,6.029,CST-1368DR,4743,5375,12082,01.026,551
2022-05-19T11:43:35,42.805,6.029,CST-1368DR,4743,5377,12087,01.025,551
2022-05-19T11:46:37,42.805,6.029,CST-1368DR,4743,5373,12078,01.028,551
2022-05-19T11:49:38,42.805,6.029,CST-1368DR,4743,5376,12083,01.026,551
2022-05-19T11:52:40,42.805,6.029,CST-1368DR,4743,5376,12085,01.025,551
2022-05-19T11:55:42,42.805,6.029,CST-1368DR,4743,5376,12085,01.025,551
2022-05-19T11:58:43,42.805,6.029,CST-1368DR,4743,5376,12085,01.025,551
2022-05-19T12:01:45,42.805,6.029,CST-1368DR,4743,5377,12087,01.025,551
2022-05-19T12:04:46,42.805,6.029,CST-1368DR,4743,5378,12089,01.024,551
2022-05-19T12:07:48,42.805,6.029,CST-1368DR,4743,5377,12086,01.025,551
2022-05-19T12:10:49,42.805,6.029,CST-1368DR,4743,5378,12088,01.024,551
2022-05-19T12:13:51,42.805,6.029,CST-1368DR,4743,5378,12089,01.024,551
2022-05-19T12:16:53,42.805,6.029,CST-1368DR,4743,5374,12080,01.027,551
2022-05-19T12:19:54,42.805,6.029,CST-1368DR,4743,5378,12090,01.024,551
2022-05-19T12:22:56,42.805,6.029,CST-1368DR,4743,5374,12081,01.027,551
2022-05-19T12:25:57,42.805,6.029,CST-1368DR,4743,5375,12083,01.026,551
2022-05-19T12:28:59,42.805,6.029,CST-1368DR,4743,5377,12086,01.025,551
2022-05-19T12:32:00,42.805,6.029,CST-1368DR,4743,5377,12087,01.025,551
2022-05-19T12:35:02,42.805,6.029,CST-1368DR,4743,5374,12080,01.027,551
2022-05-19T12:38:04,42.805,6.029,CST-1368DR,4743,5375,12082,01.026,551
2022-05-19T12:41:05,42.805,6.029,CST-1368DR,4743,5376,12085,01.025,551
2022-05-19T12:44:07,42.805,6.029,CST-1368DR,4743,5374,12080,01.027,551
2022-05-19T12:47:08,42.805,6.029,CST-1368DR,4743,5373,12077,01.028,551
2022-05-19T12:50:10,42.805,6.029,CST-1368DR,4743,5373,12077,01.028,551
2022-05-19T12:53:11,42.805,6.029,CST-1368DR,4743,5374,12079,01.027,551
2022-05-19T12:56:13,42.805,6.029,CST-1368DR,4743,5372,12076,01.028,551
2022-05-19T12:59:15,42.805,6.029,CST-1368DR,4743,5371,12074,01.029,551
2022-05-19T13:02:16,42.805,6.029,CST-1368DR,4743,5372,12074,01.029,551
2022-05-19T13:05:18,42.805,6.029,CST-1368DR,4743,5368,12067,01.031,551
2022-05-19T13:08:19,42.805,6.029,CST-1368DR,4742,5370,12073,01.029,551
2022-05-19T13:11:21,42.805,6.029,CST-1368DR,4743,5370,12070,01.030,551
2022-05-19T13:14:23,42.805,6.029,CST-1368DR,4743,5368,12067,01.031,551
2022-05-19T13:17:24,42.805,6.029,CST-1368DR,4743,5369,12069,01.031,551
2022-05-19T13:20:26,42.805,6.029,CST-1368DR,4743,5373,12077,01.028,551
2022-05-19T13:23:27,42.805,6.029,CST-1368DR,4743,5367,12064,01.032,551
2022-05-19T13:26:29,42.805,6.029,CST-1368DR,4743,5372,12074,01.029,551
2022-05-19T13:29:30,42.805,6.029,CST-1368DR,4743,5371,12072,01.030,551
2022-05-19T13:32:32,42.805,6.029,CST-1368DR,4743,5375,12081,01.027,551
2022-05-19T13:35:34,42.805,6.029,CST-1368DR,4743,5372,12075,01.029,551
2022-05-19T13:38:35,42.805,6.029,CST-1368DR,4743,5371,12072,01.030,551
2022-05-19T13:41:37,42.805,6.029,CST-1368DR,4743,5371,12073,01.029,551
2022-05-19T13:44:38,42.805,6.029,CST-1368DR,4743,5372,12075,01.029,551
2022-05-19T13:47:40,42.805,6.029,CST-1368DR,4743,5375,12081,01.027,551
2022-05-19T13:50:42,42.805,6.029,CST-1368DR,4743,5371,12073,01.029,551
2022-05-19T13:53:43,42.805,6.029,CST-1368DR,4743,5370,12071,01.030,551
2022-05-19T13:56:45,42.805,6.029,CST-1368DR,4743,5369,12069,01.031,551
2022-05-19T13:59:46,42.805,6.029,CST-1368DR,4743,5372,12075,01.029,551
2022-05-19T14:02:48,42.805,6.029,CST-1368DR,4743,5370,12072,01.030,551
2022-05-19T14:05:49,42.805,6.029,CST-1368DR,4742,5370,12074,01.029,551
2022-05-19T14:08:51,42.805,6.029,CST-1368DR,4742,5369,12071,01.030,551
2022-05-19T14:11:53,42.805,6.029,CST-1368DR,4743,5371,12074,01.029,551
2022-05-19T14:14:54,42.805,6.029,CST-1368DR,4743,5373,12077,01.028,551
2022-05-19T14:17:56,42.805,6.029,CST-1368DR,4742,5370,12073,01.029,551
2022-05-19T14:20:57,42.805,6.029,CST-1368DR,4742,5369,12072,01.030,551
2022-05-19T14:23:59,42.805,6.029,CST-1368DR,4742,5351,12031,01.043,551
2022-05-19T14:27:00,42.805,6.029,CST-1368DR,4743,5370,12072,01.030,551
2022-05-19T14:30:02,42.805,6.029,CST-1368DR,4743,5371,12072,01.030,551
2022-05-19T14:33:04,42.805,6.029,CST-1368DR,4743,5369,12068,01.031,551
2022-05-19T14:36:05,42.805,6.029,CST-1368DR,4743,5370,12070,01.030,551
2022-05-19T14:39:07,42.805,6.029,CST-1368DR,4742,5372,12078,01.028,551
2022-05-19T14:42:08,42.805,6.029,CST-1368DR,4743,5367,12063,01.033,551
2022-05-19T14:45:10,42.805,6.029,CST-1368DR,4743,5368,12067,01.031,551
2022-05-19T14:48:12,42.805,6.029,CST-1368DR,4742,5371,12076,01.028,551
2022-05-19T14:51:13,42.805,6.029,CST-1368DR,4743,5374,12080,01.027,551
2022-05-19T14:54:15,42.805,6.029,CST-1368DR,4743,5371,12073,01.029,551
2022-05-19T14:57:16,42.805,6.029,CST-1368DR,4743,5370,12070,01.030,551
2022-05-19T15:00:18,42.805,6.029,CST-1368DR,4742,5365,12062,01.033,551
2022-05-19T15:03:19,42.805,6.029,CST-1368DR,4742,5368,12068,01.031,551
2022-05-19T15:06:21,42.805,6.029,CST-1368DR,4742,5370,12074,01.029,551
2022-05-19T15:09:23,42.805,6.029,CST-1368DR,4742,5366,12065,01.032,551
2022-05-19T15:12:24,42.805,6.029,CST-1368DR,4742,5370,12073,01.029,551
2022-05-19T15:15:26,42.805,6.029,CST-1368DR,4743,5370,12071,01.030,551
2022-05-19T15:18:27,42.805,6.029,CST-1368DR,4743,5370,12072,01.030,551
2022-05-19T15:21:29,42.805,6.029,CST-1368DR,4743,5372,12075,01.029,551
2022-05-19T15:24:30,42.805,6.029,CST-1368DR,4743,5371,12073,01.029,551
2022-05-19T15:27:32,42.805,6.029,CST-1368DR,4742,5372,12077,01.028,551
2022-05-19T15:30:34,42.805,6.029,CST-1368DR,4742,5371,12076,01.028,551
2022-05-19T15:33:35,42.805,6.029,CST-1368DR,4742,5369,12070,01.030,551
2022-05-19T15:36:37,42.805,6.029,CST-1368DR,4743,5372,12075,01.029,551
2022-05-19T15:39:38,42.805,6.029,CST-1368DR,4742,5370,12074,01.029,551
2022-05-19T15:42:40,42.805,6.029,CST-1368DR,4742,5373,12079,01.027,551
2022-05-19T15:45:42,42.805,6.029,CST-1368DR,4742,5371,12075,01.029,551
2022-05-19T15:48:43,42.805,6.029,CST-1368DR,4742,5373,12080,01.027,551
2022-05-19T15:51:45,42.805,6.029,CST-1368DR,4742,5371,12076,01.028,551
2022-05-19T15:54:46,42.805,6.029,CST-1368DR,4742,5371,12075,01.029,551
2022-05-19T15:57:48,42.805,6.029,CST-1368DR,4742,5372,12077,01.028,551
2022-05-19T16:00:49,42.805,6.029,CST-1368DR,4742,5372,12077,01.028,551
2022-05-19T16:03:51,42.805,6.029,CST-1368DR,4742,5373,12080,01.027,551
2022-05-19T16:06:53,42.805,6.029,CST-1368DR,4742,5374,12082,01.026,551
2022-05-19T16:09:54,42.805,6.029,CST-1368DR,4742,5374,12081,01.027,551
2022-05-19T16:12:56,42.805,6.029,CST-1368DR,4742,5366,12064,01.032,551
2022-05-19T16:15:57,42.805,6.029,CST-1368DR,4742,5373,12081,01.027,551
2022-05-19T16:18:59,42.805,6.029,CST-1368DR,4742,5373,12080,01.027,551
2022-05-19T16:22:00,42.805,6.029,CST-1368DR,4742,5372,12078,01.028,551
2022-05-19T16:25:02,42.805,6.029,CST-1368DR,4742,5372,12078,01.028,551
2022-05-19T16:28:04,42.805,6.029,CST-1368DR,4742,5374,12082,01.026,551
2022-05-19T16:31:05,42.805,6.029,CST-1368DR,4742,5371,12076,01.028,551
2022-05-19T16:34:07,42.805,6.029,CST-1368DR,4742,5371,12076,01.028,551
2022-05-19T16:37:08,42.805,6.029,CST-1368DR,4742,5369,12071,01.030,551